Location: Burzi?i
(45.0869°N, 16.0577°E)
Time: 04:31:44
(UTC+00:00)

NOSS 3-3 (C) - Pass Details

Date: 29 October 2020
Orbit: 827 x 1385 km, 63.5° (Epoch: 29 November)

Event Time Altitude Azimuth Distance (km) Brightness Sun altitude
Rises 18:04:13 0° 230° (SW) 3,426 7.5 -24.6°
Reaches altitude 10° 18:06:38 10° 235° (SW) 2,535 6.8 -25.0°
Maximum altitude 18:12:25 58° 314° (NW) 1,101 4.4 -26.1°
Enters shadow 18:16:18 24° 25° (NNE) 1,941 5.4 -26.7°
